Погода в Березовке

Россия / Ульяновская область     54°03′08″N   47°37′16″E
темп.,
°C
ветер,
м/с
пор.,
м/с
влажн.,
%
обл.,
%
осадки,
мм/ч
давл.,
гПа
погр.,
м
7 мая, пт
пт701:00+10ю41171100 0.0 1015202
04:00+10ю41269100 0.0 1015240
07:00+10ю41172100 0.0 1015278
10:00+14ю71158100 0.0 1014956
13:00+17ю81146100 0.0 10131931
16:00+17ю71149100 0.0 10131656
19:00+12зюз81280100 0.4 1014714
22:00+10юз2495100 2.9 1015187
8 мая, сб
сб801:00+9ссз3594100 0.5 1016274
04:00+8с3594100 1.0 1017244
07:00+8св3694100 0.1 1017255
10:00+10всв3394100 0.1 1017369
13:00+15ю236738 0.1 10151088
16:00+15ю2470100 0.1 1014310
19:00+16юв226988 0.0 101329
22:00+12юв238197 0.0 101228
9 мая, вс
вс901:00+11ю3378100 0.0 101246
04:00+9ююв358161 0.0 101275
07:00+11ююв3977100 0.0 1012243
10:00+16ю5856100 0.0 1012601
13:00+19ю5751100 0.0 10121464
16:00+18юз3562100 0.1 1012859
19:00+12зсз4790100 0.5 1014299
22:00+11сз3598100 6.7 1016216
10 мая, пн
пн1001:00+9ссз3696100 1.1 1017241
04:00+9ссз3696100 2.1 1019242
07:00+9с5795100 0.1 1021324
10:00+10с6890100 0.2 1023486
13:00+13ссв578399 0.4 1023634
16:00+13ссв6881100 0.5 1024761
19:00+13ссв598163 0.0 1025665
22:00+10ссв612885 0.0 1026439
11 мая, вт
вт1101:00+9св612855 0.0 1026485
04:00+7св614845 0.0 1027490
07:00+8св613835 0.0 1027511
10:00+11св810596 0.0 1028684
13:00+14св79495 0.0 1028816
16:00+15св78443 0.0 1027830
19:00+13св611555 0.0 1028444
22:00+9св411650 0.0 1028234